N3TW KAPF-KMIA

Flight info

Callsign N3TW
Flight time 0h 23m
Altitude 15000
Route MARCI FROGZ FROGZ5
Aircraft SF50/L-SDGRWY/L

Departure

Time 2026-05-05 17:57
Airport Naples Municipal Airport (KAPF)

Arrival

Time 2026-05-05 18:20
Airport Miami International Airport (KMIA)
Time Latitude Longitude Altitude Speed Heading
2026-05-05 17:50 26.15368 -81.77086 11 ft 0 kts 22°
2026-05-05 17:52 26.15369 -81.77086 11 ft 0 kts 19°
2026-05-05 17:53 26.15365 -81.77092 11 ft 2 kts 200°
2026-05-05 17:53 26.15361 -81.77094 11 ft 0 kts 198°
2026-05-05 17:53 26.15334 -81.77104 12 ft 10 kts 198°
2026-05-05 17:53 26.15221 -81.77118 11 ft 23 kts 170°
2026-05-05 17:54 26.15107 -81.77143 7 ft 14 kts 149°
2026-05-05 17:54 26.15045 -81.77078 6 ft 11 kts 133°
2026-05-05 17:54 26.14995 -81.77022 6 ft 10 kts 134°
2026-05-05 17:54 26.14950 -81.76972 7 ft 8 kts 134°
2026-05-05 17:55 26.14914 -81.76930 9 ft 7 kts 133°
2026-05-05 17:55 26.14882 -81.76898 9 ft 6 kts 166°
2026-05-05 17:55 26.14836 -81.76910 9 ft 9 kts 217°
2026-05-05 17:55 26.14830 -81.76962 9 ft 7 kts 296°
2026-05-05 17:56 26.14889 -81.77034 7 ft 31 kts 315°
2026-05-05 17:56 26.15197 -81.77384 7 ft 94 kts 315°
2026-05-05 17:56 26.15755 -81.78007 224 ft 118 kts 314°
2026-05-05 17:56 26.16313 -81.78705 574 ft 133 kts 298°
2026-05-05 17:57 26.16388 -81.79758 1058 ft 147 kts 250°
2026-05-05 17:57 26.15624 -81.80572 1477 ft 168 kts 197°
2026-05-05 17:57 26.14409 -81.80559 1813 ft 192 kts 162°
2026-05-05 17:57 26.13192 -81.79735 2082 ft 215 kts 140°
2026-05-05 17:58 26.12024 -81.78835 3117 ft 192 kts 149°
2026-05-05 17:58 26.10895 -81.78217 4092 ft 174 kts 157°
2026-05-05 17:58 26.09724 -81.77810 4666 ft 179 kts 172°
2026-05-05 17:58 26.08489 -81.77780 5232 ft 180 kts 184°
2026-05-05 17:59 26.07232 -81.77842 5794 ft 182 kts 183°
2026-05-05 17:59 26.05965 -81.77879 6369 ft 183 kts 183°
2026-05-05 17:59 26.04681 -81.77918 6874 ft 185 kts 184°
2026-05-05 17:59 26.03386 -81.77962 7384 ft 187 kts 184°
2026-05-05 18:00 26.02085 -81.78001 7883 ft 188 kts 184°
2026-05-05 18:00 26.00774 -81.78043 8376 ft 189 kts 184°
2026-05-05 18:00 25.99452 -81.78083 8858 ft 191 kts 185°
2026-05-05 18:00 25.98118 -81.78126 9338 ft 192 kts 185°
2026-05-05 18:01 25.96775 -81.78169 9813 ft 194 kts 185°
2026-05-05 18:01 25.95424 -81.78213 10241 ft 195 kts 185°
2026-05-05 18:01 25.94060 -81.78257 10647 ft 197 kts 185°
2026-05-05 18:01 25.92684 -81.78240 11052 ft 201 kts 175°
2026-05-05 18:02 25.91347 -81.77712 11456 ft 208 kts 154°
2026-05-05 18:02 25.90218 -81.76682 11848 ft 216 kts 133°
2026-05-05 18:02 25.89436 -81.75154 11888 ft 242 kts 108°
2026-05-05 18:02 25.89233 -81.73212 11915 ft 266 kts 87°
2026-05-05 18:03 25.89331 -81.71084 11938 ft 285 kts 85°
2026-05-05 18:03 25.89426 -81.68819 11953 ft 301 kts 86°
2026-05-05 18:03 25.89496 -81.66449 11965 ft 313 kts 87°
2026-05-05 18:03 25.89569 -81.63997 11960 ft 322 kts 87°
2026-05-05 18:04 25.89652 -81.61497 12067 ft 325 kts 87°
2026-05-05 18:04 25.89739 -81.58977 12091 ft 330 kts 87°
2026-05-05 18:04 25.89818 -81.56446 12090 ft 334 kts 87°
2026-05-05 18:04 25.89900 -81.53851 12099 ft 338 kts 87°
2026-05-05 18:05 25.89983 -81.51229 12097 ft 342 kts 87°
2026-05-05 18:05 25.90068 -81.48577 12097 ft 345 kts 87°
2026-05-05 18:05 25.90152 -81.45902 12098 ft 348 kts 87°
2026-05-05 18:05 25.90235 -81.43205 12098 ft 351 kts 87°
2026-05-05 18:06 25.90319 -81.40488 12101 ft 353 kts 87°
2026-05-05 18:06 25.90375 -81.38681 12099 ft 355 kts 87°
2026-05-05 18:06 25.90488 -81.35012 12099 ft 357 kts 87°
2026-05-05 18:06 25.90571 -81.32244 12097 ft 359 kts 87°
2026-05-05 18:07 25.90654 -81.29468 12097 ft 360 kts 87°
2026-05-05 18:07 25.90737 -81.26683 12097 ft 361 kts 87°
2026-05-05 18:07 25.90822 -81.23893 12098 ft 362 kts 87°
2026-05-05 18:07 25.90903 -81.21097 12098 ft 362 kts 87°
2026-05-05 18:08 25.90983 -81.18296 12093 ft 363 kts 88°
2026-05-05 18:08 25.91047 -81.15495 12092 ft 363 kts 88°
2026-05-05 18:08 25.91105 -81.12695 12095 ft 362 kts 88°
2026-05-05 18:08 25.91170 -81.09895 12094 ft 362 kts 88°
2026-05-05 18:09 25.91239 -81.07098 12088 ft 362 kts 88°
2026-05-05 18:09 25.91143 -81.04327 11978 ft 364 kts 98°
2026-05-05 18:09 25.90511 -81.01609 11975 ft 362 kts 110°
2026-05-05 18:09 25.89527 -80.99045 11981 ft 360 kts 114°
2026-05-05 18:10 25.88545 -80.96493 11980 ft 359 kts 114°
2026-05-05 18:10 25.87574 -80.93930 11982 ft 359 kts 114°
2026-05-05 18:10 25.86600 -80.91383 11977 ft 359 kts 114°
2026-05-05 18:10 25.85616 -80.88840 11982 ft 358 kts 114°
2026-05-05 18:11 25.84636 -80.86298 11978 ft 358 kts 114°
2026-05-05 18:11 25.83663 -80.83754 11977 ft 358 kts 114°
2026-05-05 18:11 25.82686 -80.81214 11975 ft 358 kts 114°
2026-05-05 18:11 25.81706 -80.78676 11979 ft 358 kts 114°
2026-05-05 18:12 25.80729 -80.76141 11980 ft 358 kts 114°
2026-05-05 18:12 25.79792 -80.73703 11923 ft 327 kts 114°
2026-05-05 18:12 25.78941 -80.71493 10902 ft 316 kts 114°
2026-05-05 18:12 25.78092 -80.69307 9579 ft 302 kts 114°
2026-05-05 18:13 25.77457 -80.67477 8241 ft 296 kts 107°
2026-05-05 18:13 25.77158 -80.65259 6835 ft 287 kts 92°
2026-05-05 18:13 25.77237 -80.63095 5408 ft 277 kts 85°
2026-05-05 18:13 25.77351 -80.60985 4172 ft 271 kts 86°
2026-05-05 18:14 25.77435 -80.58937 3988 ft 263 kts 86°
2026-05-05 18:14 25.77544 -80.56904 3982 ft 266 kts 82°
2026-05-05 18:14 25.77963 -80.54893 3986 ft 269 kts 74°
2026-05-05 18:14 25.78425 -80.52868 3813 ft 272 kts 75°
2026-05-05 18:15 25.78857 -80.50828 3509 ft 270 kts 76°
2026-05-05 18:15 25.79285 -80.48813 3172 ft 268 kts 75°
2026-05-05 18:15 25.79605 -80.46798 2836 ft 259 kts 86°
2026-05-05 18:15 25.79657 -80.44920 2550 ft 228 kts 86°
2026-05-05 18:16 25.79731 -80.43229 2280 ft 213 kts 85°
2026-05-05 18:16 25.79814 -80.41649 2022 ft 197 kts 85°
2026-05-05 18:16 25.79877 -80.40277 1809 ft 163 kts 86°
2026-05-05 18:16 25.79922 -80.39076 1604 ft 148 kts 85°
2026-05-05 18:17 25.79968 -80.37990 1502 ft 132 kts 85°
2026-05-05 18:17 25.80011 -80.37021 1499 ft 122 kts 84°
2026-05-05 18:17 25.80046 -80.36054 1208 ft 135 kts 85°
2026-05-05 18:17 25.80094 -80.34989 964 ft 126 kts 84°
2026-05-05 18:18 25.80125 -80.34126 721 ft 102 kts 85°
2026-05-05 18:18 25.80157 -80.33376 543 ft 94 kts 89°
2026-05-05 18:18 25.80177 -80.32704 437 ft 84 kts 89°
2026-05-05 18:18 25.80211 -80.32092 358 ft 74 kts 84°
2026-05-05 18:19 25.80272 -80.31544 274 ft 71 kts 85°
2026-05-05 18:19 25.80282 -80.31014 266 ft 69 kts 89°
2026-05-05 18:19 25.80279 -80.30469 195 ft 72 kts 83°
2026-05-05 18:19 25.80303 -80.29913 98 ft 71 kts 86°
2026-05-05 18:20 25.80329 -80.29435 9 ft 51 kts 85°
2026-05-05 18:20 25.80331 -80.29189 9 ft 16 kts 86°
2026-05-05 18:20 25.80379 -80.29127 9 ft 11 kts 313°
2026-05-05 18:20 25.80420 -80.29155 9 ft 6 kts 21°
2026-05-05 18:21 25.80444 -80.29111 9 ft 8 kts 83°
2026-05-05 18:21 25.80476 -80.29059 9 ft 10 kts 14°
2026-05-05 18:21 25.80545 -80.29046 9 ft 11 kts
2026-05-05 18:21 25.80622 -80.29049 9 ft 11 kts 330°
2026-05-05 18:22 25.80632 -80.29062 9 ft 0 kts 282°